User: anonymous   Login
Location: *
(49.5667°N, 1.3667°W)
Time: 02:12:00
(UTC+00:00)
Language:

MetOp-A - Orbit

View from above orbital plane
View from above orbital plane
View from above satellite
View from above satellite

Ground track
Ground track

The orbit data is extracted from the following two-line orbital elements,

1 29499U 06044A   19317.84996900  .00000013  00000-0  25296-4 0  9995
2 29499  98.5563   6.6935 0001406 120.0496 295.9892 14.21488178678114
Epoch (UTC): 13 November 2019 20:23:57
Eccentricity: 0.0001406
inclination: 98.5563°
perigee height: 819 km
apogee height: 821 km
right ascension of ascending node: 6.6935°
argument of perigee: 120.0496°
revolutions per day: 14.21488178
mean anomaly at epoch: 295.9892°
orbit number at epoch: 67811

The dashed part of the orbit path shows where the satellite is in the earth's shadow,  

DLR